GFSNE_prec_precacc24_144.txt.gz
Total_Precipitation_Accumulation
0.35 0.24 0.10 0.03 0.01 0.01 0.00 0.00 0.00 0.00 0.00 0.00 0.00 0.00 0.00 0.00 0.00 0.00 0.00 0.00 0.00 0.00 0.01 0.01 0.01 0.00 0.00 0.00 0.02 0.02 0.02 0.02 0.01 0.01 0.01 0.02 0.03 0.07
0.35 0.37 0.27 0.16 0.09 0.05 0.03 0.01 0.00 0.00 0.01 0.00 0.00 0.00 0.00 0.00 0.00 0.00 0.00 0.00 0.00 0.01 0.01 0.02 0.01 0.01 0.01 0.01 0.02 0.03 0.03 0.02 0.02 0.04 0.04 0.01 0.02 0.08
0.16 0.19 0.17 0.12 0.11 0.09 0.08 0.08 0.02 0.00 0.00 0.00 0.00 0.00 0.00 0.00 0.00 0.00 0.00 0.00 0.00 0.00 0.00 0.00 0.01 0.02 0.02 0.02 0.05 0.07 0.06 0.03 0.03 0.03 0.03 0.04 0.05 0.03
0.11 0.11 0.10 0.11 0.14 0.11 0.10 0.08 0.04 0.00 0.00 0.00 0.00 0.00 0.00 0.00 0.00 0.00 0.00 0.00 0.00 0.00 0.01 0.01 0.01 0.02 0.03 0.04 0.05 0.08 0.11 0.12 0.05 0.01 0.01 0.07 0.07 0.04
0.07 0.11 0.11 0.17 0.19 0.16 0.15 0.11 0.07 0.03 0.01 0.02 0.01 0.00 0.00 0.00 0.00 0.00 0.00 0.00 0.00 0.01 0.01 0.01 0.01 0.02 0.02 0.02 0.03 0.05 0.07 0.09 0.09 0.08 0.06 0.07 0.09 0.04
0.14 0.13 0.16 0.17 0.17 0.19 0.21 0.19 0.14 0.08 0.04 0.04 0.02 0.02 0.02 0.01 0.01 0.00 0.01 0.01 0.01 0.01 0.01 0.01 0.02 0.02 0.02 0.03 0.03 0.04 0.04 0.05 0.06 0.07 0.07 0.06 0.07 0.04
0.24 0.22 0.18 0.17 0.16 0.18 0.20 0.19 0.20 0.17 0.10 0.07 0.05 0.04 0.03 0.03 0.03 0.04 0.03 0.02 0.01 0.01 0.00 0.01 0.01 0.01 0.02 0.03 0.02 0.03 0.03 0.04 0.05 0.05 0.05 0.07 0.09 0.05
0.64 0.46 0.42 0.44 0.38 0.33 0.27 0.24 0.25 0.23 0.15 0.09 0.06 0.03 0.03 0.04 0.06 0.07 0.07 0.04 0.02 0.00 0.01 0.01 0.01 0.01 0.01 0.02 0.09 0.06 0.05 0.05 0.05 0.05 0.04 0.06 0.09 0.07
0.91 0.94 0.89 0.78 0.87 0.90 0.92 0.83 0.68 0.51 0.38 0.27 0.19 0.09 0.08 0.09 0.15 0.15 0.10 0.08 0.07 0.05 0.05 0.06 0.06 0.04 0.03 0.05 0.08 0.05 0.05 0.03 0.03 0.03 0.02 0.02 0.03 0.05
0.69 0.71 0.76 0.76 0.72 0.74 0.75 0.77 0.66 0.52 0.41 0.39 0.32 0.24 0.20 0.17 0.15 0.14 0.16 0.19 0.17 0.10 0.05 0.03 0.01 0.01 0.01 0.02 0.06 0.04 0.04 0.04 0.03 0.02 0.02 0.03 0.03 0.04
0.71 0.65 0.62 0.60 0.61 0.59 0.54 0.47 0.37 0.29 0.32 0.36 0.36 0.34 0.30 0.25 0.21 0.19 0.20 0.16 0.16 0.10 0.06 0.06 0.03 0.03 0.03 0.02 0.02 0.04 0.03 0.02 0.02 0.02 0.01 0.01 0.01 0.02
0.68 0.60 0.62 0.53 0.59 0.51 0.42 0.35 0.30 0.24 0.23 0.25 0.27 0.27 0.25 0.22 0.19 0.12 0.10 0.11 0.10 0.10 0.08 0.06 0.04 0.05 0.03 0.01 0.00 0.01 0.01 0.02 0.01 0.01 0.01 0.02 0.01 0.00
0.18 0.24 0.32 0.49 0.43 0.47 0.51 0.47 0.45 0.45 0.51 0.47 0.40 0.33 0.28 0.23 0.19 0.15 0.11 0.09 0.09 0.08 0.06 0.08 0.06 0.03 0.01 0.00 0.00 0.00 0.00 0.00 0.00 0.00 0.01 0.00 0.01 0.01
0.09 0.12 0.20 0.37 0.27 0.26 0.29 0.32 0.34 0.31 0.24 0.21 0.24 0.24 0.23 0.22 0.21 0.24 0.28 0.27 0.22 0.16 0.11 0.08 0.05 0.03 0.01 0.00 0.00 0.00 0.00 0.00 0.00 0.00 0.00 0.00 0.00 0.01
0.03 0.06 0.12 0.20 0.22 0.28 0.34 0.32 0.30 0.26 0.30 0.32 0.24 0.19 0.20 0.25 0.27 0.30 0.29 0.22 0.18 0.15 0.13 0.08 0.06 0.04 0.02 0.00 0.00 0.00 0.00 0.00 0.00 0.00 0.00 0.00 0.00 0.00
0.02 0.04 0.07 0.07 0.11 0.16 0.21 0.21 0.16 0.17 0.30 0.39 0.44 0.48 0.49 0.47 0.39 0.32 0.28 0.21 0.18 0.16 0.12 0.09 0.07 0.06 0.05 0.03 0.01 0.00 0.00 0.00 0.00 0.00 0.00 0.00 0.00 0.00
0.02 0.07 0.12 0.10 0.09 0.07 0.05 0.10 0.16 0.23 0.32 0.30 0.35 0.38 0.42 0.47 0.46 0.41 0.37 0.31 0.26 0.19 0.16 0.13 0.10 0.07 0.04 0.02 0.01 0.00 0.00 0.00 0.00 0.00 0.00 0.00 0.00 0.00
0.06 0.04 0.04 0.09 0.16 0.25 0.34 0.37 0.34 0.31 0.24 0.25 0.30 0.34 0.40 0.43 0.41 0.39 0.40 0.39 0.35 0.28 0.22 0.18 0.13 0.09 0.04 0.02 0.01 0.00 0.00 0.00 0.00 0.00 0.00 0.00 0.00 0.00
0.18 0.09 0.05 0.05 0.06 0.09 0.15 0.25 0.34 0.37 0.43 0.54 0.54 0.46 0.41 0.43 0.50 0.49 0.49 0.48 0.43 0.35 0.28 0.21 0.16 0.10 0.06 0.03 0.01 0.00 0.00 0.00 0.00 0.00 0.00 0.00 0.00 0.00
0.22 0.12 0.10 0.14 0.19 0.22 0.22 0.21 0.22 0.26 0.31 0.38 0.46 0.49 0.52 0.53 0.51 0.42 0.41 0.44 0.49 0.47 0.40 0.28 0.18 0.10 0.05 0.01 0.00 0.00 0.00 0.00 0.00 0.00 0.00 0.00 0.00 0.00
0.31 0.30 0.29 0.33 0.36 0.40 0.46 0.50 0.51 0.49 0.43 0.40 0.42 0.47 0.47 0.50 0.53 0.47 0.44 0.45 0.50 0.51 0.43 0.31 0.21 0.14 0.08 0.02 0.00 0.00 0.00 0.00 0.00 0.00 0.00 0.00 0.00 0.00
0.41 0.45 0.47 0.56 0.62 0.66 0.66 0.63 0.62 0.63 0.60 0.54 0.54 0.53 0.50 0.51 0.52 0.51 0.55 0.58 0.48 0.39 0.36 0.36 0.38 0.24 0.10 0.03 0.01 0.00 0.00 0.00 0.00 0.00 0.00 0.00 0.00 0.00
0.44 0.54 0.58 0.60 0.59 0.55 0.52 0.54 0.58 0.55 0.48 0.47 0.52 0.56 0.56 0.56 0.49 0.52 0.58 0.60 0.55 0.56 0.51 0.47 0.40 0.24 0.14 0.10 0.04 0.01 0.00 0.00 0.00 0.00 0.00 0.00 0.00 0.00

GFSNE_prec_precacc24_147.txt.gz
Total_Precipitation_Accumulation
0.29 0.19 0.08 0.02 0.01 0.02 0.01 0.00 0.00 0.01 0.00 0.00 0.00 0.00 0.00 0.00 0.00 0.00 0.00 0.00 0.00 0.00 0.01 0.01 0.01 0.00 0.00 0.00 0.01 0.02 0.02 0.02 0.01 0.00 0.01 0.02 0.02 0.07
0.32 0.34 0.28 0.19 0.12 0.07 0.04 0.03 0.02 0.01 0.00 0.00 0.00 0.00 0.00 0.00 0.00 0.00 0.00 0.00 0.00 0.01 0.01 0.01 0.01 0.01 0.01 0.01 0.02 0.03 0.03 0.02 0.02 0.04 0.04 0.01 0.02 0.08
0.17 0.25 0.24 0.20 0.23 0.22 0.20 0.19 0.14 0.10 0.07 0.02 0.00 0.00 0.00 0.00 0.00 0.00 0.00 0.00 0.00 0.00 0.00 0.00 0.01 0.02 0.02 0.02 0.04 0.06 0.05 0.03 0.03 0.03 0.03 0.04 0.04 0.03
0.11 0.11 0.10 0.16 0.22 0.19 0.23 0.26 0.25 0.17 0.15 0.08 0.02 0.00 0.00 0.00 0.00 0.00 0.00 0.00 0.00 0.00 0.00 0.01 0.01 0.02 0.02 0.03 0.04 0.07 0.10 0.12 0.05 0.01 0.01 0.06 0.06 0.03
0.07 0.11 0.11 0.17 0.21 0.19 0.19 0.17 0.16 0.17 0.20 0.17 0.08 0.02 0.00 0.00 0.00 0.00 0.00 0.00 0.00 0.00 0.00 0.01 0.01 0.00 0.01 0.01 0.02 0.05 0.07 0.09 0.09 0.08 0.06 0.07 0.09 0.04
0.14 0.14 0.16 0.17 0.18 0.21 0.24 0.25 0.26 0.29 0.31 0.29 0.18 0.08 0.03 0.01 0.01 0.01 0.02 0.03 0.04 0.03 0.02 0.01 0.01 0.01 0.01 0.02 0.02 0.03 0.03 0.04 0.06 0.07 0.07 0.06 0.07 0.04
0.25 0.22 0.18 0.17 0.16 0.18 0.21 0.21 0.26 0.31 0.31 0.29 0.20 0.12 0.05 0.03 0.03 0.08 0.10 0.10 0.06 0.02 0.01 0.01 0.00 0.01 0.01 0.02 0.01 0.02 0.02 0.04 0.05 0.05 0.05 0.07 0.09 0.06
0.65 0.47 0.42 0.45 0.39 0.34 0.28 0.25 0.27 0.29 0.26 0.22 0.16 0.12 0.06 0.06 0.11 0.14 0.16 0.12 0.07 0.01 0.01 0.01 0.01 0.01 0.01 0.01 0.06 0.04 0.04 0.05 0.05 0.05 0.04 0.06 0.09 0.07
0.95 0.97 0.91 0.79 0.89 0.94 0.98 0.91 0.78 0.63 0.50 0.41 0.35 0.23 0.16 0.13 0.21 0.26 0.22 0.16 0.13 0.07 0.06 0.06 0.04 0.03 0.03 0.05 0.09 0.05 0.05 0.03 0.03 0.03 0.02 0.02 0.03 0.05
0.92 0.95 0.99 1.01 1.02 0.97 0.97 1.05 0.96 0.81 0.69 0.66 0.56 0.38 0.33 0.32 0.33 0.28 0.29 0.33 0.31 0.18 0.09 0.05 0.02 0.02 0.02 0.02 0.05 0.04 0.04 0.04 0.03 0.02 0.02 0.03 0.04 0.04
0.95 0.88 0.86 0.84 0.86 0.86 0.82 0.76 0.63 0.54 0.54 0.62 0.60 0.51 0.42 0.33 0.29 0.30 0.37 0.33 0.27 0.14 0.07 0.06 0.05 0.04 0.04 0.03 0.03 0.06 0.03 0.03 0.03 0.02 0.01 0.01 0.01 0.02
0.82 0.70 0.79 0.62 0.65 0.59 0.50 0.42 0.35 0.28 0.27 0.30 0.33 0.34 0.32 0.31 0.38 0.27 0.16 0.14 0.13 0.11 0.08 0.07 0.06 0.06 0.06 0.03 0.01 0.02 0.02 0.03 0.03 0.02 0.01 0.02 0.01 0.00
0.22 0.26 0.33 0.50 0.44 0.48 0.52 0.48 0.46 0.47 0.52 0.48 0.40 0.34 0.28 0.24 0.22 0.21 0.20 0.20 0.16 0.14 0.09 0.13 0.10 0.08 0.08 0.05 0.02 0.01 0.02 0.02 0.02 0.01 0.01 0.00 0.01 0.01
0.09 0.12 0.20 0.39 0.28 0.27 0.30 0.35 0.38 0.35 0.25 0.22 0.25 0.25 0.24 0.23 0.23 0.28 0.35 0.44 0.41 0.30 0.21 0.23 0.15 0.12 0.12 0.11 0.08 0.05 0.05 0.04 0.02 0.01 0.00 0.01 0.01 0.01
0.03 0.06 0.12 0.20 0.22 0.28 0.34 0.33 0.30 0.26 0.30 0.32 0.25 0.20 0.21 0.27 0.30 0.34 0.34 0.30 0.30 0.30 0.31 0.25 0.18 0.16 0.15 0.15 0.10 0.06 0.07 0.04 0.01 0.00 0.00 0.00 0.00 0.00
0.02 0.04 0.07 0.07 0.11 0.16 0.21 0.21 0.16 0.17 0.30 0.39 0.44 0.48 0.49 0.48 0.43 0.37 0.35 0.30 0.30 0.30 0.25 0.21 0.18 0.17 0.16 0.11 0.07 0.08 0.07 0.03 0.01 0.00 0.00 0.00 0.00 0.00
0.02 0.07 0.12 0.10 0.09 0.07 0.05 0.10 0.16 0.23 0.32 0.30 0.35 0.38 0.42 0.47 0.47 0.44 0.44 0.42 0.40 0.35 0.31 0.31 0.30 0.25 0.20 0.16 0.13 0.11 0.10 0.08 0.04 0.03 0.01 0.00 0.00 0.00
0.06 0.04 0.04 0.09 0.16 0.25 0.34 0.37 0.34 0.31 0.24 0.25 0.30 0.34 0.41 0.44 0.42 0.40 0.44 0.45 0.45 0.44 0.44 0.45 0.45 0.44 0.40 0.31 0.21 0.16 0.13 0.09 0.06 0.04 0.02 0.00 0.00 0.00
0.18 0.09 0.05 0.05 0.06 0.09 0.15 0.25 0.34 0.37 0.43 0.54 0.54 0.47 0.42 0.44 0.52 0.51 0.50 0.52 0.51 0.47 0.47 0.48 0.50 0.51 0.51 0.41 0.28 0.18 0.12 0.09 0.06 0.03 0.01 0.00 0.00 0.00
0.22 0.12 0.10 0.14 0.19 0.22 0.22 0.22 0.22 0.25 0.31 0.38 0.46 0.50 0.53 0.54 0.53 0.44 0.44 0.49 0.56 0.61 0.58 0.50 0.46 0.41 0.37 0.33 0.28 0.18 0.10 0.06 0.03 0.01 0.00 0.00 0.00 0.00
0.31 0.30 0.29 0.33 0.36 0.40 0.46 0.50 0.51 0.49 0.43 0.40 0.42 0.46 0.47 0.50 0.55 0.50 0.49 0.51 0.60 0.65 0.60 0.50 0.46 0.46 0.45 0.37 0.31 0.22 0.12 0.05 0.01 0.00 0.00 0.00 0.00 0.00
0.41 0.46 0.47 0.56 0.62 0.66 0.66 0.63 0.62 0.63 0.59 0.54 0.54 0.52 0.49 0.51 0.54 0.54 0.60 0.66 0.59 0.47 0.48 0.57 0.71 0.70 0.52 0.37 0.26 0.17 0.09 0.03 0.00 0.00 0.00 0.00 0.00 0.00
0.44 0.54 0.58 0.60 0.58 0.54 0.51 0.53 0.57 0.54 0.47 0.46 0.52 0.56 0.56 0.56 0.50 0.54 0.63 0.66 0.65 0.68 0.64 0.66 0.70 0.63 0.48 0.41 0.32 0.21 0.12 0.04 0.00 0.00 0.00 0.00 0.00 0.00

GFSNE_prec_precacc24_150.txt.gz
Total_Precipitation_Accumulation
0.30 0.20 0.08 0.02 0.01 0.02 0.03 0.03 0.03 0.04 0.02 0.00 0.00 0.00 0.00 0.00 0.00 0.00 0.00 0.00 0.00 0.00 0.00 0.00 0.00 0.00 0.00 0.00 0.01 0.02 0.02 0.02 0.01 0.00 0.00 0.01 0.01 0.05
0.32 0.33 0.28 0.18 0.11 0.07 0.05 0.03 0.03 0.02 0.03 0.01 0.00 0.00 0.00 0.00 0.00 0.00 0.00 0.00 0.00 0.00 0.00 0.00 0.00 0.00 0.01 0.01 0.02 0.03 0.03 0.02 0.02 0.04 0.04 0.01 0.02 0.07
0.16 0.24 0.25 0.21 0.24 0.23 0.21 0.19 0.15 0.12 0.10 0.03 0.01 0.00 0.01 0.00 0.00 0.00 0.00 0.00 0.00 0.00 0.00 0.00 0.01 0.01 0.01 0.01 0.03 0.05 0.05 0.03 0.03 0.03 0.03 0.04 0.03 0.02
0.10 0.11 0.11 0.17 0.25 0.24 0.30 0.35 0.34 0.30 0.32 0.23 0.13 0.09 0.06 0.03 0.01 0.01 0.00 0.00 0.00 0.00 0.01 0.03 0.03 0.03 0.01 0.02 0.02 0.04 0.08 0.11 0.04 0.01 0.01 0.06 0.05 0.03
0.08 0.11 0.11 0.17 0.21 0.19 0.21 0.22 0.24 0.27 0.35 0.40 0.32 0.25 0.16 0.08 0.05 0.03 0.01 0.01 0.00 0.01 0.01 0.02 0.03 0.02 0.01 0.00 0.01 0.02 0.04 0.08 0.08 0.07 0.06 0.07 0.09 0.03
0.15 0.14 0.16 0.17 0.18 0.21 0.24 0.25 0.26 0.31 0.34 0.37 0.29 0.26 0.16 0.08 0.09 0.08 0.04 0.04 0.06 0.04 0.03 0.03 0.03 0.03 0.02 0.01 0.01 0.02 0.03 0.04 0.05 0.06 0.07 0.06 0.07 0.04
0.26 0.23 0.18 0.17 0.16 0.19 0.21 0.22 0.26 0.32 0.33 0.33 0.27 0.24 0.15 0.07 0.08 0.13 0.18 0.16 0.09 0.03 0.02 0.01 0.01 0.02 0.02 0.01 0.00 0.00 0.01 0.02 0.04 0.04 0.05 0.07 0.09 0.06
0.66 0.48 0.45 0.46 0.39 0.34 0.28 0.25 0.27 0.30 0.27 0.23 0.18 0.14 0.08 0.07 0.11 0.16 0.22 0.20 0.12 0.02 0.01 0.02 0.01 0.01 0.00 0.01 0.05 0.03 0.02 0.03 0.03 0.04 0.04 0.06 0.09 0.07
0.99 1.01 0.94 0.83 0.93 0.98 0.99 0.93 0.80 0.65 0.50 0.42 0.36 0.25 0.19 0.16 0.25 0.34 0.31 0.25 0.17 0.08 0.07 0.08 0.05 0.03 0.02 0.03 0.05 0.03 0.03 0.03 0.03 0.03 0.03 0.02 0.03 0.05
0.93 0.96 1.04 1.09 1.06 0.99 0.99 1.09 1.01 0.86 0.75 0.75 0.69 0.49 0.44 0.42 0.46 0.36 0.34 0.38 0.36 0.21 0.11 0.08 0.03 0.02 0.02 0.02 0.03 0.03 0.03 0.04 0.04 0.04 0.04 0.03 0.04 0.04
1.04 0.91 0.93 0.93 0.93 0.91 0.87 0.86 0.81 0.72 0.74 0.84 0.83 0.77 0.74 0.69 0.65 0.60 0.56 0.49 0.40 0.18 0.10 0.12 0.09 0.07 0.06 0.04 0.02 0.05 0.04 0.04 0.05 0.04 0.03 0.02 0.02 0.02
1.00 0.77 0.91 0.68 0.72 0.66 0.55 0.47 0.42 0.34 0.32 0.34 0.35 0.36 0.36 0.37 0.52 0.47 0.39 0.38 0.25 0.18 0.09 0.10 0.08 0.07 0.07 0.03 0.01 0.02 0.03 0.05 0.06 0.04 0.03 0.03 0.01 0.00
0.27 0.30 0.36 0.57 0.48 0.51 0.53 0.48 0.47 0.47 0.53 0.48 0.40 0.34 0.28 0.24 0.23 0.25 0.30 0.46 0.40 0.28 0.17 0.27 0.16 0.13 0.14 0.11 0.05 0.02 0.03 0.06 0.10 0.08 0.07 0.05 0.03 0.02
0.10 0.12 0.21 0.40 0.28 0.27 0.30 0.35 0.38 0.35 0.25 0.22 0.25 0.25 0.24 0.24 0.24 0.29 0.36 0.47 0.54 0.47 0.33 0.43 0.30 0.22 0.22 0.23 0.18 0.10 0.08 0.10 0.13 0.13 0.12 0.12 0.10 0.05
0.03 0.06 0.13 0.20 0.22 0.28 0.34 0.33 0.30 0.26 0.30 0.32 0.25 0.20 0.21 0.27 0.31 0.34 0.35 0.31 0.33 0.36 0.43 0.42 0.40 0.34 0.35 0.34 0.23 0.14 0.16 0.16 0.16 0.16 0.14 0.13 0.09 0.04
0.02 0.04 0.07 0.07 0.11 0.16 0.21 0.21 0.16 0.17 0.30 0.39 0.44 0.48 0.49 0.48 0.43 0.37 0.35 0.30 0.31 0.31 0.27 0.28 0.31 0.35 0.38 0.33 0.27 0.24 0.21 0.18 0.17 0.16 0.15 0.14 0.12 0.08
0.02 0.07 0.12 0.10 0.09 0.07 0.05 0.10 0.16 0.23 0.32 0.30 0.35 0.38 0.42 0.47 0.47 0.44 0.44 0.42 0.41 0.35 0.31 0.31 0.34 0.34 0.35 0.33 0.32 0.28 0.23 0.20 0.16 0.14 0.17 0.20 0.16 0.10
0.06 0.04 0.04 0.09 0.16 0.25 0.34 0.37 0.34 0.31 0.24 0.25 0.30 0.34 0.41 0.44 0.42 0.40 0.44 0.45 0.46 0.44 0.44 0.45 0.46 0.47 0.51 0.50 0.42 0.35 0.32 0.29 0.26 0.25 0.25 0.23 0.18 0.15
0.18 0.09 0.05 0.05 0.06 0.09 0.15 0.25 0.34 0.37 0.43 0.54 0.54 0.47 0.42 0.44 0.53 0.51 0.51 0.52 0.51 0.47 0.48 0.50 0.52 0.56 0.61 0.52 0.44 0.41 0.38 0.39 0.40 0.42 0.36 0.27 0.18 0.12
0.21 0.11 0.10 0.14 0.19 0.22 0.22 0.22 0.22 0.25 0.31 0.38 0.46 0.50 0.53 0.54 0.53 0.45 0.45 0.50 0.58 0.63 0.61 0.52 0.49 0.46 0.48 0.45 0.42 0.43 0.41 0.40 0.40 0.37 0.32 0.24 0.18 0.15
0.28 0.27 0.28 0.33 0.36 0.40 0.46 0.50 0.52 0.49 0.43 0.40 0.42 0.46 0.47 0.51 0.56 0.51 0.50 0.54 0.62 0.68 0.63 0.52 0.47 0.54 0.64 0.56 0.54 0.55 0.49 0.43 0.34 0.28 0.24 0.17 0.11 0.07
0.39 0.45 0.47 0.56 0.62 0.66 0.67 0.63 0.62 0.63 0.59 0.54 0.54 0.52 0.49 0.52 0.55 0.55 0.61 0.68 0.61 0.49 0.52 0.61 0.77 0.81 0.64 0.50 0.43 0.40 0.38 0.37 0.31 0.22 0.14 0.09 0.06 0.03
0.42 0.53 0.58 0.60 0.58 0.54 0.51 0.53 0.57 0.54 0.46 0.46 0.51 0.56 0.56 0.57 0.51 0.55 0.64 0.67 0.66 0.71 0.69 0.71 0.79 0.74 0.62 0.58 0.50 0.48 0.42 0.37 0.28 0.18 0.10 0.04 0.02 0.02

GFSNE_prec_precacc24_153.txt.gz
Total_Precipitation_Accumulation
0.32 0.22 0.11 0.04 0.03 0.03 0.04 0.05 0.05 0.06 0.03 0.00 0.00 0.00 0.00 0.00 0.00 0.00 0.00 0.00 0.00 0.00 0.00 0.00 0.00 0.00 0.00 0.00 0.00 0.01 0.02 0.02 0.01 0.00 0.00 0.01 0.01 0.04
0.34 0.35 0.29 0.19 0.12 0.08 0.06 0.04 0.04 0.03 0.03 0.01 0.00 0.00 0.00 0.00 0.00 0.00 0.00 0.00 0.00 0.00 0.00 0.00 0.00 0.00 0.00 0.00 0.01 0.03 0.03 0.02 0.02 0.04 0.04 0.01 0.02 0.05
0.18 0.26 0.26 0.22 0.25 0.24 0.21 0.20 0.15 0.12 0.10 0.03 0.01 0.00 0.01 0.01 0.00 0.01 0.00 0.00 0.00 0.00 0.00 0.00 0.01 0.01 0.01 0.01 0.01 0.04 0.05 0.03 0.03 0.03 0.03 0.04 0.03 0.02
0.12 0.13 0.13 0.19 0.27 0.25 0.32 0.36 0.35 0.31 0.32 0.24 0.13 0.09 0.06 0.04 0.04 0.05 0.05 0.03 0.02 0.01 0.01 0.03 0.03 0.04 0.03 0.02 0.02 0.03 0.06 0.10 0.04 0.01 0.01 0.06 0.05 0.03
0.10 0.12 0.11 0.17 0.21 0.20 0.22 0.23 0.25 0.30 0.39 0.45 0.35 0.27 0.19 0.13 0.12 0.12 0.09 0.08 0.04 0.03 0.03 0.02 0.03 0.03 0.02 0.01 0.01 0.02 0.03 0.06 0.06 0.06 0.06 0.07 0.08 0.03
0.15 0.14 0.16 0.17 0.17 0.19 0.22 0.24 0.26 0.31 0.35 0.38 0.30 0.27 0.17 0.09 0.12 0.13 0.10 0.10 0.10 0.07 0.04 0.03 0.03 0.03 0.02 0.01 0.00 0.00 0.02 0.03 0.04 0.05 0.06 0.06 0.07 0.04
0.24 0.22 0.19 0.16 0.16 0.18 0.21 0.22 0.26 0.32 0.34 0.34 0.29 0.26 0.17 0.08 0.10 0.15 0.21 0.18 0.10 0.04 0.02 0.01 0.01 0.02 0.02 0.01 0.00 0.00 0.01 0.02 0.03 0.03 0.04 0.06 0.09 0.06
0.64 0.48 0.45 0.47 0.41 0.35 0.29 0.25 0.27 0.30 0.28 0.24 0.19 0.15 0.10 0.08 0.12 0.17 0.24 0.21 0.13 0.02 0.01 0.02 0.02 0.02 0.00 0.00 0.02 0.02 0.02 0.02 0.03 0.04 0.04 0.07 0.10 0.09
0.98 1.01 0.95 0.84 0.94 1.00 1.01 0.94 0.81 0.66 0.51 0.43 0.37 0.26 0.21 0.18 0.27 0.35 0.31 0.25 0.17 0.08 0.07 0.09 0.06 0.04 0.02 0.02 0.03 0.01 0.01 0.01 0.02 0.03 0.03 0.03 0.03 0.05
0.92 0.96 1.05 1.10 1.07 1.00 1.00 1.10 1.04 0.92 0.85 0.82 0.79 0.61 0.55 0.53 0.54 0.44 0.39 0.42 0.38 0.24 0.16 0.12 0.04 0.03 0.02 0.02 0.02 0.02 0.03 0.04 0.04 0.05 0.05 0.05 0.05 0.05
1.05 0.92 0.94 0.94 0.95 0.92 0.89 0.99 0.99 0.89 0.94 1.00 0.98 0.91 0.89 0.88 0.84 0.76 0.73 0.63 0.48 0.22 0.13 0.17 0.12 0.09 0.07 0.04 0.02 0.06 0.06 0.05 0.07 0.06 0.05 0.04 0.03 0.04
1.12 0.89 1.02 0.74 0.78 0.72 0.59 0.52 0.52 0.50 0.47 0.45 0.47 0.47 0.42 0.42 0.61 0.55 0.48 0.46 0.32 0.23 0.13 0.14 0.10 0.10 0.10 0.04 0.01 0.02 0.05 0.08 0.10 0.08 0.08 0.08 0.06 0.04
0.40 0.43 0.47 0.66 0.57 0.61 0.62 0.54 0.51 0.50 0.56 0.50 0.41 0.34 0.28 0.24 0.23 0.26 0.31 0.47 0.42 0.32 0.23 0.41 0.22 0.17 0.18 0.14 0.07 0.03 0.04 0.08 0.17 0.17 0.18 0.15 0.13 0.10
0.18 0.20 0.28 0.44 0.31 0.30 0.32 0.36 0.39 0.35 0.25 0.22 0.25 0.25 0.24 0.24 0.24 0.29 0.36 0.47 0.54 0.47 0.34 0.48 0.36 0.25 0.27 0.28 0.22 0.12 0.11 0.14 0.21 0.27 0.29 0.34 0.41 0.35
0.03 0.07 0.14 0.21 0.22 0.29 0.34 0.33 0.30 0.26 0.30 0.32 0.25 0.20 0.21 0.27 0.31 0.34 0.35 0.31 0.33 0.36 0.43 0.43 0.41 0.37 0.40 0.42 0.31 0.21 0.21 0.21 0.22 0.27 0.30 0.34 0.33 0.31
0.02 0.04 0.07 0.07 0.11 0.16 0.21 0.21 0.16 0.17 0.30 0.39 0.44 0.48 0.49 0.48 0.43 0.37 0.35 0.30 0.31 0.31 0.27 0.28 0.31 0.35 0.38 0.34 0.29 0.27 0.24 0.22 0.24 0.27 0.31 0.34 0.33 0.30
0.02 0.07 0.12 0.10 0.09 0.07 0.05 0.10 0.16 0.23 0.32 0.30 0.35 0.38 0.42 0.47 0.47 0.44 0.44 0.42 0.41 0.35 0.31 0.31 0.34 0.34 0.35 0.33 0.32 0.29 0.24 0.22 0.17 0.18 0.26 0.38 0.43 0.38
0.06 0.04 0.04 0.09 0.16 0.25 0.34 0.37 0.34 0.31 0.24 0.25 0.30 0.34 0.41 0.44 0.42 0.40 0.44 0.45 0.46 0.45 0.45 0.45 0.46 0.48 0.51 0.50 0.42 0.35 0.32 0.29 0.27 0.28 0.31 0.35 0.37 0.37
0.17 0.09 0.05 0.04 0.06 0.09 0.15 0.25 0.34 0.37 0.43 0.54 0.54 0.47 0.42 0.44 0.53 0.51 0.51 0.52 0.51 0.47 0.48 0.50 0.53 0.57 0.62 0.53 0.44 0.42 0.40 0.41 0.43 0.47 0.46 0.42 0.36 0.31
0.21 0.11 0.09 0.11 0.16 0.20 0.22 0.22 0.22 0.25 0.31 0.38 0.46 0.50 0.53 0.55 0.54 0.46 0.46 0.51 0.59 0.64 0.62 0.53 0.49 0.47 0.50 0.48 0.47 0.45 0.45 0.47 0.50 0.52 0.52 0.49 0.45 0.39
0.22 0.20 0.19 0.23 0.28 0.36 0.45 0.50 0.52 0.49 0.43 0.40 0.42 0.46 0.47 0.51 0.57 0.51 0.51 0.54 0.63 0.69 0.64 0.52 0.47 0.55 0.68 0.63 0.59 0.57 0.53 0.53 0.52 0.49 0.48 0.47 0.44 0.43
0.30 0.34 0.35 0.43 0.53 0.62 0.65 0.63 0.62 0.63 0.59 0.54 0.54 0.52 0.49 0.52 0.56 0.56 0.62 0.69 0.61 0.50 0.53 0.61 0.77 0.83 0.68 0.55 0.48 0.45 0.43 0.46 0.49 0.46 0.45 0.43 0.36 0.31
0.32 0.38 0.44 0.50 0.53 0.51 0.50 0.53 0.57 0.53 0.46 0.46 0.51 0.55 0.55 0.56 0.51 0.55 0.64 0.68 0.67 0.72 0.70 0.72 0.79 0.76 0.65 0.61 0.53 0.52 0.48 0.50 0.44 0.34 0.30 0.25 0.24 0.23

GFSNE_prec_precacc24_156.txt.gz
Total_Precipitation_Accumulation
0.33 0.25 0.16 0.08 0.07 0.07 0.08 0.07 0.09 0.10 0.04 0.00 0.00 0.00 0.00 0.00 0.00 0.00 0.00 0.00 0.00 0.00 0.00 0.00 0.00 0.00 0.00 0.00 0.00 0.01 0.02 0.01 0.01 0.00 0.00 0.01 0.00 0.03
0.34 0.37 0.31 0.22 0.17 0.13 0.11 0.08 0.07 0.05 0.04 0.01 0.00 0.00 0.00 0.00 0.00 0.00 0.00 0.00 0.00 0.00 0.00 0.00 0.00 0.00 0.00 0.00 0.00 0.01 0.02 0.02 0.02 0.03 0.04 0.01 0.01 0.04
0.19 0.27 0.27 0.25 0.27 0.25 0.23 0.22 0.17 0.14 0.11 0.03 0.01 0.00 0.01 0.01 0.00 0.01 0.00 0.00 0.00 0.00 0.00 0.00 0.01 0.01 0.01 0.00 0.00 0.01 0.03 0.03 0.03 0.03 0.03 0.03 0.03 0.02
0.12 0.15 0.14 0.21 0.29 0.28 0.33 0.37 0.36 0.31 0.33 0.24 0.13 0.09 0.06 0.04 0.04 0.05 0.05 0.03 0.02 0.02 0.03 0.03 0.03 0.03 0.03 0.02 0.01 0.00 0.03 0.05 0.03 0.01 0.01 0.04 0.04 0.03
0.11 0.13 0.12 0.19 0.21 0.20 0.22 0.24 0.26 0.30 0.40 0.45 0.35 0.27 0.20 0.13 0.12 0.12 0.09 0.08 0.04 0.03 0.03 0.03 0.03 0.03 0.02 0.01 0.01 0.01 0.01 0.05 0.08 0.08 0.05 0.04 0.07 0.03
0.14 0.14 0.16 0.17 0.16 0.18 0.22 0.24 0.27 0.31 0.35 0.39 0.31 0.28 0.18 0.09 0.12 0.13 0.10 0.10 0.10 0.07 0.05 0.04 0.04 0.03 0.02 0.01 0.00 0.00 0.00 0.02 0.03 0.05 0.07 0.07 0.07 0.05
0.20 0.20 0.17 0.15 0.15 0.17 0.21 0.21 0.26 0.33 0.34 0.35 0.30 0.27 0.19 0.10 0.11 0.16 0.23 0.19 0.12 0.06 0.06 0.04 0.02 0.02 0.02 0.01 0.00 0.00 0.01 0.03 0.04 0.04 0.05 0.08 0.11 0.07
0.51 0.39 0.37 0.41 0.38 0.35 0.29 0.26 0.28 0.31 0.28 0.25 0.19 0.16 0.10 0.08 0.13 0.18 0.25 0.22 0.14 0.03 0.02 0.03 0.02 0.02 0.01 0.01 0.02 0.04 0.03 0.04 0.04 0.04 0.04 0.07 0.10 0.10
0.78 0.82 0.79 0.69 0.76 0.91 0.98 0.94 0.82 0.67 0.52 0.44 0.39 0.27 0.21 0.18 0.28 0.36 0.32 0.26 0.18 0.08 0.08 0.09 0.06 0.04 0.02 0.02 0.03 0.02 0.02 0.03 0.04 0.06 0.04 0.03 0.04 0.06
0.78 0.82 0.92 0.98 0.96 0.92 0.95 1.09 1.05 0.95 0.89 0.85 0.84 0.68 0.60 0.56 0.56 0.47 0.42 0.43 0.40 0.27 0.22 0.22 0.07 0.05 0.03 0.03 0.04 0.04 0.04 0.05 0.06 0.06 0.05 0.05 0.06 0.05
0.94 0.81 0.81 0.85 0.90 0.87 0.88 1.00 1.04 0.98 1.04 1.05 1.04 1.04 1.00 0.94 0.88 0.79 0.78 0.71 0.56 0.28 0.19 0.26 0.16 0.12 0.08 0.05 0.02 0.07 0.06 0.06 0.08 0.10 0.11 0.10 0.09 0.09
1.04 0.84 0.99 0.70 0.76 0.73 0.61 0.55 0.55 0.56 0.59 0.61 0.64 0.61 0.53 0.51 0.69 0.61 0.53 0.51 0.38 0.28 0.17 0.18 0.12 0.11 0.11 0.04 0.01 0.02 0.05 0.08 0.11 0.09 0.10 0.12 0.13 0.17
0.51 0.60 0.63 0.84 0.67 0.71 0.74 0.65 0.66 0.60 0.66 0.59 0.50 0.43 0.35 0.29 0.26 0.28 0.32 0.48 0.44 0.34 0.26 0.43 0.23 0.17 0.18 0.14 0.07 0.03 0.04 0.08 0.17 0.18 0.19 0.19 0.19 0.21
0.40 0.46 0.57 0.69 0.47 0.46 0.48 0.53 0.57 0.50 0.32 0.26 0.28 0.27 0.25 0.24 0.24 0.29 0.36 0.47 0.54 0.47 0.34 0.48 0.36 0.25 0.27 0.28 0.22 0.12 0.11 0.14 0.21 0.27 0.29 0.37 0.49 0.47
0.06 0.12 0.19 0.25 0.26 0.32 0.39 0.35 0.31 0.27 0.30 0.32 0.25 0.20 0.21 0.27 0.31 0.34 0.35 0.31 0.33 0.36 0.43 0.43 0.41 0.37 0.40 0.43 0.31 0.21 0.21 0.21 0.22 0.27 0.31 0.34 0.34 0.34
0.02 0.04 0.07 0.07 0.11 0.16 0.21 0.21 0.16 0.17 0.30 0.39 0.44 0.48 0.49 0.48 0.43 0.37 0.35 0.30 0.31 0.31 0.27 0.28 0.31 0.35 0.38 0.34 0.29 0.28 0.24 0.23 0.24 0.27 0.31 0.34 0.34 0.32
0.02 0.07 0.12 0.10 0.09 0.07 0.05 0.10 0.16 0.23 0.32 0.30 0.35 0.38 0.42 0.47 0.47 0.44 0.44 0.42 0.41 0.35 0.31 0.31 0.34 0.34 0.35 0.34 0.32 0.29 0.24 0.22 0.17 0.18 0.26 0.38 0.44 0.40
0.06 0.04 0.04 0.09 0.16 0.25 0.34 0.37 0.34 0.31 0.24 0.25 0.30 0.34 0.41 0.44 0.42 0.40 0.44 0.45 0.46 0.45 0.45 0.45 0.46 0.48 0.51 0.50 0.42 0.35 0.32 0.29 0.27 0.28 0.31 0.36 0.38 0.38
0.16 0.09 0.05 0.04 0.05 0.08 0.14 0.23 0.33 0.37 0.43 0.54 0.54 0.47 0.42 0.44 0.53 0.51 0.51 0.52 0.51 0.47 0.48 0.50 0.53 0.58 0.62 0.53 0.44 0.42 0.40 0.41 0.43 0.48 0.47 0.44 0.39 0.34
0.16 0.10 0.07 0.08 0.10 0.12 0.12 0.12 0.15 0.19 0.28 0.37 0.45 0.49 0.53 0.55 0.54 0.46 0.46 0.51 0.59 0.64 0.62 0.53 0.50 0.47 0.52 0.49 0.48 0.46 0.45 0.47 0.50 0.52 0.54 0.53 0.50 0.47
0.13 0.16 0.13 0.13 0.14 0.18 0.26 0.34 0.41 0.43 0.39 0.37 0.40 0.45 0.47 0.51 0.56 0.51 0.51 0.54 0.63 0.68 0.64 0.52 0.47 0.56 0.68 0.65 0.62 0.58 0.53 0.53 0.53 0.54 0.53 0.53 0.52 0.55
0.09 0.15 0.17 0.21 0.29 0.37 0.44 0.47 0.50 0.55 0.56 0.53 0.53 0.51 0.49 0.51 0.56 0.56 0.61 0.69 0.62 0.51 0.54 0.60 0.76 0.83 0.70 0.57 0.49 0.45 0.44 0.47 0.50 0.50 0.51 0.53 0.49 0.45
0.09 0.13 0.18 0.22 0.30 0.34 0.36 0.42 0.49 0.49 0.44 0.45 0.51 0.55 0.55 0.55 0.49 0.53 0.62 0.66 0.66 0.72 0.70 0.71 0.78 0.75 0.65 0.61 0.53 0.52 0.49 0.51 0.46 0.37 0.34 0.34 0.37 0.40